QPF
0.01 0.02 0.03 0.03 0.04 0.04 0.04 0.05 0.05 0.03 0.01 0.00 0.00 0.00 0.01 0.01 0.01 0.01 0.01 0.00 0.00 0.00 0.01 0.04 0.05 0.08 0.12 0.16 0.18 0.21 0.20 0.12 0.06 0.04 0.05 0.06 0.06 0.04
0.01 0.02 0.02 0.04 0.04 0.05 0.05 0.05 0.05 0.05 0.02 0.01 0.01 0.01 0.01 0.01 0.02 0.02 0.01 0.01 0.00 0.00 0.01 0.02 0.05 0.09 0.14 0.19 0.20 0.19 0.19 0.14 0.10 0.08 0.11 0.10 0.08 0.04
0.01 0.02 0.02 0.03 0.04 0.05 0.05 0.05 0.05 0.05 0.04 0.01 0.01 0.01 0.02 0.02 0.02 0.03 0.02 0.02 0.01 0.01 0.01 0.02 0.04 0.08 0.13 0.19 0.22 0.23 0.22 0.17 0.13 0.12 0.13 0.11 0.07 0.03
0.01 0.01 0.02 0.03 0.04 0.04 0.05 0.06 0.05 0.05 0.04 0.03 0.02 0.01 0.01 0.03 0.04 0.04 0.03 0.03 0.02 0.02 0.02 0.03 0.04 0.07 0.11 0.17 0.21 0.24 0.25 0.23 0.19 0.14 0.10 0.07 0.04 0.02
0.02 0.02 0.03 0.04 0.04 0.04 0.04 0.06 0.05 0.04 0.04 0.04 0.04 0.03 0.02 0.04 0.06 0.07 0.06 0.05 0.04 0.04 0.04 0.05 0.07 0.08 0.09 0.13 0.17 0.22 0.23 0.23 0.20 0.17 0.12 0.06 0.03 0.01
0.01 0.02 0.03 0.05 0.06 0.06 0.06 0.06 0.06 0.06 0.05 0.05 0.05 0.05 0.04 0.05 0.09 0.08 0.07 0.06 0.06 0.05 0.06 0.07 0.09 0.10 0.11 0.10 0.11 0.14 0.19 0.25 0.25 0.20 0.13 0.07 0.03 0.02
0.01 0.01 0.03 0.05 0.08 0.11 0.12 0.09 0.07 0.06 0.07 0.09 0.09 0.09 0.09 0.10 0.12 0.12 0.10 0.08 0.09 0.09 0.08 0.06 0.06 0.07 0.09 0.13 0.14 0.14 0.15 0.17 0.19 0.18 0.14 0.09 0.05 0.02
0.01 0.01 0.02 0.04 0.07 0.10 0.14 0.13 0.11 0.10 0.11 0.14 0.16 0.17 0.16 0.16 0.18 0.19 0.17 0.13 0.13 0.12 0.10 0.10 0.08 0.08 0.09 0.10 0.15 0.15 0.14 0.13 0.12 0.12 0.11 0.08 0.04 0.02
0.02 0.02 0.04 0.05 0.06 0.06 0.10 0.12 0.12 0.13 0.15 0.17 0.22 0.24 0.25 0.25 0.25 0.26 0.26 0.20 0.15 0.14 0.12 0.18 0.17 0.14 0.13 0.16 0.19 0.17 0.15 0.13 0.10 0.08 0.06 0.05 0.03 0.02
0.04 0.05 0.06 0.06 0.07 0.08 0.08 0.11 0.12 0.12 0.16 0.19 0.24 0.26 0.27 0.31 0.34 0.37 0.38 0.35 0.29 0.20 0.12 0.17 0.23 0.21 0.18 0.19 0.19 0.16 0.14 0.11 0.09 0.07 0.05 0.03 0.02 0.01
0.06 0.07 0.09 0.08 0.08 0.06 0.07 0.09 0.08 0.09 0.11 0.15 0.20 0.24 0.26 0.33 0.40 0.44 0.45 0.44 0.48 0.45 0.27 0.17 0.21 0.21 0.23 0.24 0.20 0.14 0.11 0.09 0.07 0.05 0.04 0.03 0.02 0.01
0.05 0.08 0.14 0.12 0.06 0.03 0.04 0.06 0.06 0.07 0.07 0.08 0.10 0.15 0.23 0.31 0.41 0.48 0.51 0.49 0.50 0.54 0.45 0.29 0.20 0.16 0.20 0.21 0.16 0.11 0.08 0.07 0.05 0.04 0.03 0.02 0.01 0.01
0.05 0.08 0.13 0.10 0.03 0.02 0.02 0.03 0.05 0.03 0.04 0.05 0.06 0.09 0.16 0.25 0.35 0.45 0.52 0.52 0.48 0.48 0.45 0.34 0.26 0.17 0.14 0.15 0.12 0.08 0.05 0.04 0.03 0.03 0.02 0.02 0.01 0.01
0.06 0.06 0.08 0.05 0.01 0.00 0.00 0.00 0.00 0.01 0.01 0.02 0.03 0.05 0.10 0.19 0.27 0.36 0.46 0.50 0.49 0.44 0.38 0.30 0.23 0.17 0.12 0.10 0.10 0.08 0.05 0.03 0.02 0.02 0.01 0.01 0.00 0.00
0.06 0.06 0.04 0.02 0.00 0.00 0.00 0.00 0.00 0.00 0.00 0.01 0.02 0.03 0.06 0.11 0.16 0.21 0.30 0.37 0.40 0.38 0.33 0.29 0.24 0.18 0.14 0.11 0.08 0.06 0.05 0.03 0.02 0.01 0.01 0.00 0.00 0.00
0.02 0.02 0.02 0.01 0.00 0.00 0.00 0.00 0.00 0.00 0.00 0.00 0.01 0.01 0.02 0.04 0.08 0.12 0.16 0.22 0.26 0.28 0.27 0.26 0.24 0.21 0.17 0.14 0.10 0.08 0.05 0.03 0.02 0.01 0.01 0.00 0.00 0.00
0.01 0.01 0.01 0.00 0.00 0.00 0.00 0.00 0.00 0.00 0.00 0.00 0.00 0.00 0.01 0.02 0.03 0.06 0.08 0.11 0.14 0.15 0.17 0.17 0.17 0.16 0.15 0.13 0.11 0.09 0.06 0.04 0.02 0.01 0.01 0.00 0.00 0.00
0.00 0.00 0.00 0.00 0.00 0.00 0.00 0.00 0.00 0.00 0.00 0.00 0.00 0.00 0.00 0.01 0.01 0.02 0.03 0.05 0.06 0.07 0.07 0.08 0.09 0.09 0.08 0.08 0.06 0.05 0.03 0.02 0.01 0.00 0.00 0.00 0.00 0.00
0.00 0.00 0.00 0.00 0.00 0.00 0.00 0.00 0.00 0.00 0.00 0.00 0.00 0.00 0.00 0.00 0.00 0.01 0.01 0.02 0.03 0.03 0.03 0.03 0.03 0.04 0.04 0.03 0.02 0.01 0.01 0.00 0.00 0.00 0.00 0.00 0.00 0.00
0.00 0.00 0.00 0.00 0.00 0.00 0.00 0.00 0.00 0.00 0.00 0.00 0.00 0.00 0.00 0.00 0.00 0.00 0.00 0.00 0.01 0.01 0.01 0.01 0.01 0.01 0.01 0.01 0.00 0.00 0.00 0.00 0.00 0.00 0.00 0.00 0.00 0.00
0.00 0.00 0.00 0.00 0.00 0.00 0.00 0.00 0.00 0.00 0.00 0.00 0.00 0.00 0.00 0.00 0.00 0.00 0.00 0.00 0.00 0.00 0.00 0.00 0.00 0.00 0.00 0.00 0.00 0.00 0.00 0.00 0.00 0.00 0.00 0.00 0.00 0.00
0.00 0.00 0.00 0.00 0.00 0.00 0.00 0.00 0.00 0.00 0.00 0.00 0.00 0.00 0.00 0.00 0.00 0.00 0.00 0.00 0.00 0.00 0.00 0.00 0.00 0.00 0.00 0.00 0.00 0.00 0.00 0.00 0.00 0.00 0.00 0.00 0.00 0.00
0.00 0.00 0.00 0.00 0.00 0.00 0.00 0.00 0.00 0.00 0.00 0.00 0.00 0.00 0.00 0.00 0.00 0.00 0.00 0.00 0.00 0.00 0.00 0.00 0.00 0.00 0.00 0.00 0.00 0.00 0.00 0.00 0.00 0.00 0.00 0.00 0.00 0.00
MSLP
1018.70 1018.06 1017.37 1016.60 1015.71 1014.69 1013.58 1012.40 1011.23 1010.12 1009.16 1008.37 1007.82 1007.48 1007.35 1007.37 1007.49 1007.68 1007.88 1008.09 1008.28 1008.47 1008.68 1008.94 1009.26 1009.66 1010.12 1010.65 1011.22 1011.82 1012.43 1013.05 1013.66 1014.28 1014.89 1015.51 1016.14 1016.76
1018.43 1017.78 1017.10 1016.35 1015.50 1014.54 1013.49 1012.37 1011.26 1010.21 1009.29 1008.54 1008.00 1007.67 1007.52 1007.52 1007.62 1007.77 1007.93 1008.08 1008.22 1008.35 1008.50 1008.68 1008.92 1009.23 1009.61 1010.06 1010.57 1011.12 1011.71 1012.33 1012.97 1013.63 1014.31 1015.01 1015.72 1016.43
1018.11 1017.43 1016.73 1015.99 1015.17 1014.26 1013.28 1012.25 1011.22 1010.25 1009.40 1008.71 1008.20 1007.88 1007.72 1007.69 1007.75 1007.85 1007.95 1008.04 1008.11 1008.18 1008.26 1008.37 1008.54 1008.78 1009.09 1009.47 1009.93 1010.44 1011.01 1011.63 1012.29 1013.01 1013.76 1014.55 1015.35 1016.15
1017.76 1017.04 1016.32 1015.58 1014.79 1013.93 1013.02 1012.09 1011.16 1010.29 1009.52 1008.89 1008.42 1008.10 1007.92 1007.85 1007.84 1007.86 1007.89 1007.91 1007.92 1007.93 1007.96 1008.02 1008.15 1008.34 1008.60 1008.94 1009.36 1009.85 1010.41 1011.04 1011.73 1012.50 1013.32 1014.19 1015.08 1015.97
1017.39 1016.64 1015.90 1015.17 1014.42 1013.62 1012.80 1011.97 1011.14 1010.37 1009.69 1009.11 1008.66 1008.33 1008.11 1007.97 1007.87 1007.81 1007.75 1007.69 1007.64 1007.61 1007.61 1007.66 1007.78 1007.97 1008.23 1008.56 1008.97 1009.46 1010.02 1010.66 1011.38 1012.18 1013.05 1013.99 1014.96 1015.93
1017.03 1016.26 1015.53 1014.82 1014.12 1013.40 1012.67 1011.94 1011.23 1010.55 1009.94 1009.41 1008.96 1008.59 1008.30 1008.06 1007.87 1007.69 1007.54 1007.41 1007.32 1007.27 1007.28 1007.36 1007.51 1007.74 1008.05 1008.42 1008.85 1009.35 1009.93 1010.57 1011.31 1012.13 1013.03 1014.01 1015.02 1016.05
1016.72 1015.95 1015.25 1014.58 1013.94 1013.31 1012.68 1012.06 1011.45 1010.86 1010.31 1009.80 1009.33 1008.91 1008.53 1008.19 1007.88 1007.59 1007.35 1007.16 1007.04 1007.00 1007.05 1007.19 1007.43 1007.75 1008.13 1008.58 1009.07 1009.61 1010.20 1010.85 1011.58 1012.39 1013.29 1014.27 1015.30 1016.34
1016.48 1015.75 1015.10 1014.50 1013.93 1013.40 1012.87 1012.35 1011.83 1011.32 1010.81 1010.31 1009.82 1009.34 1008.87 1008.41 1007.98 1007.59 1007.26 1007.02 1006.88 1006.87 1006.99 1007.24 1007.59 1008.03 1008.53 1009.07 1009.64 1010.22 1010.83 1011.49 1012.19 1012.97 1013.83 1014.77 1015.77 1016.80
1016.37 1015.71 1015.12 1014.60 1014.12 1013.67 1013.25 1012.82 1012.39 1011.94 1011.47 1010.98 1010.46 1009.91 1009.35 1008.79 1008.25 1007.76 1007.35 1007.07 1006.93 1006.97 1007.16 1007.52 1008.00 1008.57 1009.21 1009.87 1010.52 1011.17 1011.80 1012.44 1013.11 1013.83 1014.62 1015.49 1016.41 1017.38
1016.46 1015.87 1015.35 1014.91 1014.52 1014.16 1013.81 1013.47 1013.11 1012.72 1012.28 1011.80 1011.25 1010.66 1010.02 1009.37 1008.74 1008.17 1007.70 1007.38 1007.24 1007.31 1007.58 1008.04 1008.64 1009.35 1010.12 1010.89 1011.63 1012.33 1012.99 1013.61 1014.24 1014.88 1015.58 1016.34 1017.17 1018.03
1016.78 1016.26 1015.83 1015.45 1015.13 1014.84 1014.56 1014.28 1013.98 1013.64 1013.23 1012.76 1012.21 1011.58 1010.90 1010.18 1009.48 1008.84 1008.32 1007.96 1007.82 1007.91 1008.23 1008.76 1009.46 1010.27 1011.14 1012.01 1012.84 1013.59 1014.27 1014.88 1015.45 1016.02 1016.62 1017.27 1017.97 1018.72
1017.36 1016.91 1016.53 1016.22 1015.94 1015.70 1015.47 1015.23 1014.97 1014.67 1014.30 1013.85 1013.31 1012.67 1011.97 1011.22 1010.47 1009.79 1009.21 1008.82 1008.65 1008.73 1009.05 1009.61 1010.36 1011.24 1012.18 1013.13 1014.01 1014.81 1015.51 1016.12 1016.66 1017.16 1017.66 1018.20 1018.78 1019.41
1018.18 1017.79 1017.46 1017.18 1016.93 1016.71 1016.49 1016.28 1016.05 1015.78 1015.44 1015.02 1014.51 1013.90 1013.21 1012.45 1011.69 1010.97 1010.36 1009.91 1009.69 1009.73 1010.03 1010.57 1011.31 1012.20 1013.17 1014.15 1015.07 1015.90 1016.62 1017.23 1017.75 1018.21 1018.64 1019.08 1019.56 1020.07
1019.20 1018.86 1018.56 1018.29 1018.04 1017.81 1017.60 1017.40 1017.18 1016.93 1016.63 1016.26 1015.80 1015.23 1014.57 1013.84 1013.09 1012.35 1011.71 1011.21 1010.93 1010.90 1011.12 1011.60 1012.28 1013.13 1014.08 1015.05 1015.98 1016.82 1017.56 1018.18 1018.69 1019.13 1019.51 1019.89 1020.28 1020.69
1020.35 1020.04 1019.75 1019.47 1019.22 1018.98 1018.75 1018.54 1018.33 1018.10 1017.84 1017.52 1017.12 1016.62 1016.02 1015.34 1014.62 1013.89 1013.24 1012.70 1012.35 1012.22 1012.34 1012.71 1013.30 1014.06 1014.93 1015.85 1016.75 1017.59 1018.33 1018.96 1019.47 1019.90 1020.27 1020.60 1020.93 1021.26
1021.53 1021.24 1020.95 1020.67 1020.40 1020.13 1019.89 1019.67 1019.46 1019.26 1019.03 1018.77 1018.44 1018.02 1017.50 1016.90 1016.23 1015.55 1014.89 1014.33 1013.92 1013.70 1013.71 1013.95 1014.40 1015.03 1015.80 1016.63 1017.47 1018.27 1018.99 1019.61 1020.13 1020.55 1020.91 1021.21 1021.49 1021.77
1022.64 1022.37 1022.09 1021.80 1021.51 1021.23 1020.98 1020.75 1020.54 1020.36 1020.18 1019.97 1019.72 1019.39 1018.97 1018.46 1017.88 1017.25 1016.63 1016.06 1015.61 1015.32 1015.22 1015.33 1015.64 1016.12 1016.75 1017.45 1018.20 1018.92 1019.59 1020.18 1020.69 1021.10 1021.44 1021.73 1021.97 1022.20
1023.59 1023.34 1023.08 1022.80 1022.52 1022.23 1021.97 1021.74 1021.54 1021.38 1021.24 1021.09 1020.90 1020.66 1020.34 1019.94 1019.46 1018.92 1018.37 1017.83 1017.38 1017.04 1016.86 1016.85 1017.02 1017.35 1017.82 1018.38 1019.00 1019.61 1020.20 1020.73 1021.18 1021.57 1021.88 1022.14 1022.35 1022.53
1024.32 1024.11 1023.88 1023.63 1023.36 1023.09 1022.84 1022.62 1022.43 1022.29 1022.17 1022.06 1021.94 1021.79 1021.57 1021.27 1020.90 1020.47 1020.00 1019.54 1019.11 1018.77 1018.54 1018.44 1018.50 1018.69 1019.01 1019.41 1019.88 1020.36 1020.83 1021.26 1021.65 1021.97 1022.24 1022.45 1022.62 1022.75
1024.81 1024.65 1024.47 1024.26 1024.02 1023.78 1023.55 1023.34 1023.17 1023.04 1022.94 1022.86 1022.79 1022.69 1022.55 1022.36 1022.10 1021.79 1021.43 1021.05 1020.69 1020.38 1020.14 1020.01 1019.97 1020.05 1020.23 1020.49 1020.80 1021.13 1021.47 1021.79 1022.07 1022.31 1022.51 1022.66 1022.78 1022.86
1025.05 1024.95 1024.81 1024.66 1024.47 1024.27 1024.07 1023.88 1023.72 1023.59 1023.49 1023.43 1023.38 1023.32 1023.25 1023.13 1022.97 1022.77 1022.53 1022.26 1022.00 1021.75 1021.54 1021.40 1021.32 1021.32 1021.39 1021.51 1021.68 1021.87 1022.07 1022.27 1022.44 1022.59 1022.71 1022.80 1022.86 1022.89
1025.05 1024.99 1024.92 1024.82 1024.69 1024.53 1024.37 1024.20 1024.04 1023.91 1023.81 1023.73 1023.68 1023.64 1023.60 1023.55 1023.47 1023.37 1023.23 1023.08 1022.92 1022.76 1022.61 1022.49 1022.41 1022.37 1022.36 1022.39 1022.45 1022.52 1022.60 1022.67 1022.75 1022.81 1022.85 1022.88 1022.89 1022.88
1024.80 1024.78 1024.76 1024.71 1024.64 1024.53 1024.40 1024.26 1024.11 1023.97 1023.86 1023.76 1023.70 1023.65 1023.62 1023.60 1023.58 1023.55 1023.52 1023.47 1023.41 1023.34 1023.28 1023.21 1023.16 1023.11 1023.07 1023.04 1023.02 1023.01 1023.00 1022.99 1022.98 1022.98 1022.97 1022.95 1022.93 1022.88
Thickness
5291 5300 5310 5321 5333 5350 5368 5388 5409 5433 5457 5480 5498 5518 5531 5545 5557 5568 5577 5585 5592 5598 5605 5611 5617 5623 5628 5632 5635 5637 5637 5637 5638 5638 5639 5640 5641 5640
5279 5290 5299 5309 5321 5335 5353 5372 5392 5413 5437 5461 5477 5496 5511 5527 5541 5553 5563 5572 5579 5587 5594 5600 5607 5614 5620 5624 5628 5631 5632 5632 5632 5632 5633 5633 5633 5632
5267 5279 5289 5298 5310 5323 5339 5357 5376 5396 5419 5442 5459 5477 5493 5509 5524 5537 5548 5558 5567 5575 5583 5590 5598 5605 5611 5616 5620 5623 5625 5626 5626 5626 5626 5625 5624 5624
5256 5267 5278 5289 5299 5312 5327 5344 5362 5380 5401 5424 5442 5458 5475 5492 5507 5521 5533 5543 5553 5563 5572 5580 5588 5596 5603 5608 5612 5616 5618 5618 5619 5619 5618 5617 5615 5613
5244 5256 5267 5278 5290 5303 5317 5333 5350 5369 5387 5407 5427 5442 5458 5474 5489 5504 5516 5527 5538 5549 5560 5569 5578 5586 5593 5599 5603 5607 5610 5611 5612 5610 5607 5605 5603 5602
5232 5244 5255 5267 5280 5294 5309 5323 5340 5358 5375 5392 5411 5426 5442 5457 5471 5486 5499 5511 5522 5534 5545 5556 5566 5574 5582 5590 5595 5598 5599 5599 5598 5597 5595 5593 5592 5590
5221 5232 5244 5258 5271 5285 5300 5314 5329 5346 5362 5378 5394 5410 5424 5439 5455 5470 5483 5495 5505 5516 5529 5541 5553 5562 5566 5573 5578 5583 5585 5584 5584 5582 5581 5579 5577 5576
5208 5220 5233 5247 5260 5274 5288 5302 5317 5332 5347 5361 5375 5389 5403 5418 5435 5452 5467 5480 5493 5506 5515 5522 5533 5540 5548 5555 5561 5565 5568 5568 5566 5565 5563 5562 5561 5560
5197 5208 5221 5235 5249 5260 5273 5287 5301 5316 5330 5341 5355 5367 5382 5399 5419 5439 5455 5466 5477 5489 5498 5502 5511 5520 5526 5532 5539 5543 5546 5547 5547 5546 5545 5544 5543 5542
5185 5196 5208 5222 5237 5249 5261 5273 5285 5298 5312 5325 5338 5352 5366 5382 5400 5419 5436 5448 5459 5468 5481 5484 5488 5495 5502 5508 5514 5520 5523 5525 5526 5525 5525 5525 5524 5524
5174 5185 5197 5211 5226 5238 5249 5260 5272 5284 5296 5309 5322 5335 5350 5368 5385 5403 5419 5434 5442 5445 5456 5464 5465 5470 5473 5479 5487 5494 5499 5502 5504 5505 5504 5505 5505 5505
5161 5172 5186 5199 5213 5224 5235 5247 5259 5269 5282 5295 5308 5321 5335 5349 5364 5379 5396 5415 5426 5427 5433 5444 5447 5451 5444 5446 5458 5467 5474 5477 5480 5482 5483 5484 5484 5485
5150 5159 5171 5186 5199 5211 5222 5234 5246 5256 5268 5281 5294 5306 5319 5332 5345 5359 5374 5391 5405 5410 5417 5428 5432 5434 5432 5427 5431 5440 5447 5452 5456 5458 5460 5461 5462 5465
5141 5150 5160 5172 5184 5197 5208 5220 5232 5243 5255 5267 5280 5291 5302 5314 5326 5340 5354 5368 5380 5392 5403 5415 5420 5423 5421 5415 5412 5415 5421 5426 5432 5435 5438 5441 5443 5446
5134 5143 5151 5160 5169 5180 5192 5204 5216 5228 5240 5251 5262 5273 5284 5296 5310 5324 5338 5350 5363 5375 5386 5396 5403 5407 5410 5406 5400 5399 5401 5403 5410 5414 5418 5421 5425 5428
5125 5132 5139 5147 5156 5166 5176 5187 5199 5211 5222 5233 5244 5256 5269 5282 5294 5307 5319 5332 5344 5353 5363 5372 5380 5387 5388 5387 5387 5385 5387 5388 5390 5395 5400 5403 5406 5410
5117 5122 5128 5136 5144 5153 5162 5172 5183 5194 5205 5216 5228 5240 5253 5265 5277 5288 5300 5311 5322 5330 5338 5346 5354 5361 5365 5367 5367 5368 5370 5373 5376 5380 5383 5387 5391 5395
5110 5113 5117 5123 5131 5139 5148 5158 5168 5178 5189 5200 5211 5224 5235 5246 5257 5269 5280 5291 5299 5307 5316 5325 5334 5342 5345 5342 5346 5352 5355 5359 5362 5366 5370 5374 5377 5381
5103 5105 5108 5112 5119 5126 5135 5144 5154 5163 5174 5185 5196 5207 5218 5229 5240 5250 5261 5271 5279 5287 5294 5304 5315 5325 5330 5327 5323 5333 5340 5344 5349 5353 5357 5362 5365 5369
5099 5099 5101 5105 5110 5116 5124 5133 5142 5151 5162 5171 5181 5191 5201 5212 5223 5233 5242 5252 5261 5269 5276 5284 5293 5301 5309 5314 5315 5317 5324 5330 5336 5340 5344 5349 5355 5361
5097 5097 5098 5101 5104 5109 5115 5123 5131 5140 5149 5159 5168 5177 5187 5197 5206 5215 5225 5235 5243 5251 5259 5266 5275 5285 5293 5299 5301 5303 5309 5316 5322 5327 5331 5336 5342 5347
5100 5098 5098 5099 5101 5104 5108 5114 5122 5130 5138 5147 5156 5165 5174 5183 5192 5201 5209 5217 5225 5234 5241 5250 5259 5269 5277 5282 5286 5291 5297 5304 5311 5317 5322 5327 5331 5335
5106 5103 5100 5100 5100 5101 5104 5108 5114 5121 5128 5136 5145 5153 5162 5171 5179 5187 5196 5204 5212 5219 5228 5235 5244 5252 5259 5266 5272 5278 5284 5292 5300 5306 5312 5318 5324 5328